| time (UTC) | temp C | wind direction | speed KPH | gust KPH | rain 1hr cm | rain 24hr cm | rain mn cm | humidity % | barometer mb |
| 20260504033642 | 15 | 117 | 0.0 | 0.0 | 0.00 | 0.00 | 0.00 | 61 | 1008.3 |
| 20260504033139 | 15 | 115 | 0.0 | 0.0 | 0.00 | 0.00 | 0.00 | 58 | 1008.1 |
| 20260504032635 | 15 | 122 | 0.0 | 0.0 | 0.00 | 0.00 | 0.00 | 57 | 1008.0 |
| 20260504032133 | 16 | 168 | 0.0 | 0.0 | 0.00 | 0.00 | 0.00 | 56 | 1008.0 |
| 20260504031630 | 16 | 179 | 1.6 | 1.6 | 0.00 | 0.00 | 0.00 | 55 | 1008.1 |
| 20260504031126 | 16 | 139 | 0.0 | 0.0 | 0.00 | 0.00 | 0.00 | 54 | 1007.9 |
| 20260504030623 | 17 | 125 | 0.0 | 0.0 | 0.00 | 0.00 | 0.00 | 52 | 1008.1 |
| 20260504030120 | 17 | 118 | 0.0 | 0.0 | 0.00 | 0.00 | 0.00 | 50 | 1007.9 |
| 20260504025617 | 18 | 130 | 0.0 | 0.0 | 0.00 | 0.00 | 0.00 | 47 | 1008.0 |
| 20260504025113 | 18 | 145 | 0.0 | 0.0 | 0.00 | 0.00 | 0.00 | 48 | 1008.1 |
| 20260504024611 | 18 | 52 | 1.6 | 3.2 | 0.00 | 0.00 | 0.00 | 44 | 1008.0 |
| 20260504024107 | 19 | 87 | 1.6 | 1.6 | 0.00 | 0.00 | 0.00 | 44 | 1007.8 |
| 20260504023604 | 20 | 93 | 0.0 | 0.0 | 0.00 | 0.00 | 0.00 | 42 | 1007.9 |
| 20260504023100 | 21 | 154 | 1.6 | 1.6 | 0.00 | 0.00 | 0.00 | 39 | 1008.0 |
| 20260504022556 | 21 | 337 | 3.2 | 4.8 | 0.00 | 0.00 | 0.00 | 37 | 1007.8 |
| 20260504022052 | 22 | 246 | 1.6 | 3.2 | 0.00 | 0.00 | 0.00 | 37 | 1007.8 |
| 20260504021550 | 22 | 284 | 3.2 | 3.2 | 0.00 | 0.00 | 0.00 | 38 | 1007.7 |
| 20260504021047 | 22 | 147 | 1.6 | 1.6 | 0.00 | 0.00 | 0.00 | 36 | 1007.8 |
| 20260504020544 | 22 | 132 | 1.6 | 1.6 | 0.00 | 0.00 | 0.00 | 35 | 1007.8 |
| 20260504020040 | 23 | 104 | 1.6 | 3.2 | 0.00 | 0.00 | 0.00 | 36 | 1008.0 |
| 20260504015537 | 23 | 100 | 1.6 | 1.6 | 0.00 | 0.00 | 0.00 | 36 | 1008.0 |
| 20260504015032 | 23 | 153 | 1.6 | 1.6 | 0.00 | 0.00 | 0.00 | 35 | 1008.0 |
| 20260504014529 | 23 | 172 | 3.2 | 3.2 | 0.00 | 0.00 | 0.00 | 35 | 1008.0 |
| 20260504014026 | 24 | 166 | 1.6 | 1.6 | 0.00 | 0.00 | 0.00 | 34 | 1007.9 |
| 20260504013524 | 23 | 12 | 3.2 | 3.2 | 0.00 | 0.00 | 0.00 | 34 | 1007.8 |
| 20260504013021 | 23 | 204 | 3.2 | 4.8 | 0.00 | 0.00 | 0.00 | 33 | 1008.0 |
| 20260504012518 | 24 | 299 | 4.8 | 4.8 | 0.00 | 0.00 | 0.00 | 33 | 1008.0 |
| 20260504012016 | 24 | 253 | 4.8 | 4.8 | 0.00 | 0.00 | 0.00 | 32 | 1008.1 |
| 20260504011512 | 24 | 282 | 4.8 | 6.4 | 0.00 | 0.00 | 0.00 | 33 | 1007.9 |
| 20260504011008 | 24 | 249 | 1.6 | 4.8 | 0.00 | 0.00 | 0.00 | 32 | 1007.9 |
| 20260504010504 | 25 | 322 | 4.8 | 4.8 | 0.00 | 0.00 | 0.00 | 31 | 1007.9 |
| 20260504010000 | 25 | 274 | 8.0 | 9.7 | 0.00 | 0.00 | 0.00 | 31 | 1008.0 |
| 20260504005457 | 25 | 299 | 9.7 | 11.3 | 0.00 | 0.00 | 0.00 | 31 | 1008.2 |
| 20260504004954 | 25 | 14 | 4.8 | 4.8 | 0.00 | 0.00 | 0.00 | 31 | 1008.1 |
| 20260504004452 | 25 | 316 | 14.5 | 17.7 | 0.00 | 0.00 | 0.00 | 29 | 1008.4 |
| 20260504003949 | 25 | 78 | 6.4 | 6.4 | 0.00 | 0.00 | 0.00 | 31 | 1008.2 |
| 20260504003445 | 25 | 273 | 11.3 | 14.5 | 0.00 | 0.00 | 0.00 | 29 | 1008.2 |
| 20260504002942 | 25 | 187 | 1.6 | 3.2 | 0.00 | 0.00 | 0.00 | 30 | 1008.3 |
| 20260504002439 | 25 | 250 | 4.8 | 6.4 | 0.00 | 0.00 | 0.00 | 30 | 1008.3 |
| 20260504001936 | 25 | 296 | 6.4 | 12.9 | 0.00 | 0.00 | 0.00 | 28 | 1008.5 |
| 20260504001434 | 25 | 337 | 12.9 | 17.7 | 0.00 | 0.00 | 0.00 | 28 | 1008.3 |
| 20260504000930 | 25 | 108 | 4.8 | 6.4 | 0.00 | 0.00 | 0.00 | 28 | 1008.4 |
| 20260504000427 | 26 | 170 | 1.6 | 3.2 | 0.00 | 0.00 | 0.00 | 28 | 1008.3 |
| 20260503235924 | 25 | 284 | 9.7 | 14.5 | 0.00 | 0.00 | 0.00 | 26 | 1008.3 |
| 20260503235422 | 26 | 302 | 4.8 | 6.4 | 0.00 | 0.00 | 0.00 | 25 | 1008.4 |
| 20260503234920 | 26 | 259 | 8.0 | 11.3 | 0.00 | 0.00 | 0.00 | 26 | 1008.3 |
| 20260503234417 | 26 | 120 | 3.2 | 3.2 | 0.00 | 0.00 | 0.00 | 26 | 1008.3 |
| 20260503233915 | 26 | 321 | 4.8 | 4.8 | 0.00 | 0.00 | 0.00 | 25 | 1008.4 |
| 20260503233411 | 26 | 237 | 6.4 | 11.3 | 0.00 | 0.00 | 0.00 | 26 | 1008.3 |
| 20260503232907 | 26 | 243 | 8.0 | 11.3 | 0.00 | 0.00 | 0.00 | 23 | 1008.3 |
| 20260503232405 | 26 | 296 | 4.8 | 6.4 | 0.00 | 0.00 | 0.00 | 24 | 1008.3 |
| 20260503231903 | 26 | 294 | 8.0 | 14.5 | 0.00 | 0.00 | 0.00 | 24 | 1008.3 |
| 20260503231400 | 26 | 301 | 11.3 | 16.1 | 0.00 | 0.00 | 0.00 | 26 | 1008.4 |
| 20260503230855 | 26 | 320 | 6.4 | 11.3 | 0.00 | 0.00 | 0.00 | 25 | 1008.3 |
| 20260503230352 | 26 | 227 | 11.3 | 14.5 | 0.00 | 0.00 | 0.00 | 25 | 1008.6 |
| 20260503225850 | 27 | 278 | 8.0 | 11.3 | 0.00 | 0.00 | 0.00 | 24 | 1008.6 |
| 20260503225346 | 26 | 264 | 12.9 | 16.1 | 0.00 | 0.00 | 0.00 | 24 | 1008.5 |
| 20260503224842 | 26 | 263 | 3.2 | 4.8 | 0.00 | 0.00 | 0.00 | 27 | 1008.5 |
| 20260503224340 | 27 | 68 | 6.4 | 9.7 | 0.00 | 0.00 | 0.00 | 25 | 1008.6 |
| 20260503223837 | 27 | 294 | 8.0 | 11.3 | 0.00 | 0.00 | 0.00 | 24 | 1008.6 |
| 20260503223335 | 27 | 328 | 8.0 | 12.9 | 0.00 | 0.00 | 0.00 | 25 | 1008.5 |
| 20260503222830 | 27 | 343 | 9.7 | 14.5 | 0.00 | 0.00 | 0.00 | 24 | 1008.5 |
| 20260503222329 | 27 | 261 | 6.4 | 9.7 | 0.00 | 0.00 | 0.00 | 26 | 1008.7 |
| 20260503221827 | 27 | 10 | 4.8 | 4.8 | 0.00 | 0.00 | 0.00 | 24 | 1008.7 |
| 20260503221325 | 28 | 152 | 4.8 | 6.4 | 0.00 | 0.00 | 0.00 | 23 | 1008.7 |
| 20260503220815 | 27 | 154 | 0.0 | 0.0 | 0.00 | 0.00 | 0.00 | 24 | 1008.8 |
| 20260503220312 | 26 | 175 | 1.6 | 3.2 | 0.00 | 0.00 | 0.00 | 28 | 1008.8 |
| 20260503215809 | 26 | 186 | 3.2 | 3.2 | 0.00 | 0.00 | 0.00 | 27 | 1009.1 |
| 20260503215306 | 27 | 307 | 6.4 | 6.4 | 0.00 | 0.00 | 0.00 | 27 | 1009.1 |
| 20260503214804 | 27 | 150 | 0.0 | 1.6 | 0.00 | 0.00 | 0.00 | 27 | 1009.0 |
| 20260503214301 | 26 | 203 | 3.2 | 3.2 | 0.00 | 0.00 | 0.00 | 29 | 1009.4 |
| 20260503213758 | 27 | 156 | 3.2 | 3.2 | 0.00 | 0.00 | 0.00 | 27 | 1009.5 |
| 20260503213255 | 27 | 74 | 4.8 | 4.8 | 0.00 | 0.00 | 0.00 | 28 | 1009.3 |
| 20260503212752 | 27 | 1 | 3.2 | 4.8 | 0.00 | 0.00 | 0.00 | 28 | 1009.4 |
| 20260503212250 | 27 | 168 | 1.6 | 1.6 | 0.00 | 0.00 | 0.00 | 29 | 1009.3 |
| 20260503211747 | 27 | 159 | 6.4 | 6.4 | 0.00 | 0.00 | 0.00 | 31 | 1009.7 |
| 20260503211243 | 27 | 156 | 3.2 | 3.2 | 0.00 | 0.00 | 0.00 | 29 | 1009.6 |
| 20260503210739 | 27 | 138 | 0.0 | 1.6 | 0.00 | 0.00 | 0.00 | 32 | 1009.7 |
| 20260503210237 | 26 | 128 | 0.0 | 1.6 | 0.00 | 0.00 | 0.00 | 28 | 1009.6 |
| 20260503205732 | 27 | 143 | 0.0 | 0.0 | 0.00 | 0.00 | 0.00 | 28 | 1009.6 |
| 20260503205228 | 26 | 157 | 1.6 | 3.2 | 0.00 | 0.00 | 0.00 | 30 | 1009.8 |
| 20260503204724 | 26 | 295 | 4.8 | 6.4 | 0.00 | 0.00 | 0.00 | 28 | 1009.9 |
| 20260503204223 | 26 | 152 | 1.6 | 3.2 | 0.00 | 0.00 | 0.00 | 26 | 1009.9 |
| 20260503203719 | 26 | 43 | 6.4 | 6.4 | 0.00 | 0.00 | 0.00 | 27 | 1010.1 |
| 20260503203217 | 26 | 252 | 4.8 | 4.8 | 0.00 | 0.00 | 0.00 | 28 | 1009.8 |
| 20260503202714 | 26 | 195 | 4.8 | 4.8 | 0.00 | 0.00 | 0.00 | 28 | 1010.1 |
| 20260503202212 | 25 | 144 | 1.6 | 1.6 | 0.00 | 0.00 | 0.00 | 28 | 1009.9 |
| 20260503201709 | 26 | 38 | 4.8 | 4.8 | 0.00 | 0.00 | 0.00 | 27 | 1010.1 |
| 20260503201207 | 26 | 184 | 3.2 | 3.2 | 0.00 | 0.00 | 0.00 | 28 | 1010.3 |
| 20260503200703 | 26 | 233 | 4.8 | 4.8 | 0.00 | 0.00 | 0.00 | 28 | 1010.1 |
| 20260503200159 | 25 | 154 | 0.0 | 1.6 | 0.00 | 0.00 | 0.00 | 29 | 1010.4 |
| 20260503195656 | 26 | 266 | 4.8 | 4.8 | 0.00 | 0.00 | 0.00 | 30 | 1010.5 |
| 20260503195153 | 26 | 157 | 1.6 | 1.6 | 0.00 | 0.00 | 0.00 | 31 | 1010.6 |
| 20260503194650 | 26 | 137 | 4.8 | 4.8 | 0.00 | 0.00 | 0.00 | 32 | 1010.4 |
| 20260503194146 | 25 | 141 | 0.0 | 1.6 | 0.00 | 0.00 | 0.00 | 32 | 1010.5 |
| 20260503193643 | 25 | 179 | 4.8 | 4.8 | 0.00 | 0.00 | 0.00 | 33 | 1010.7 |
| 20260503193138 | 25 | 99 | 3.2 | 4.8 | 0.00 | 0.00 | 0.00 | 32 | 1011.1 |
| 20260503192634 | 25 | 157 | 1.6 | 3.2 | 0.00 | 0.00 | 0.00 | 35 | 1010.7 |
| 20260503192130 | 24 | 134 | 4.8 | 6.4 | 0.00 | 0.00 | 0.00 | 37 | 1011.0 |
| 20260503191627 | 24 | 144 | 3.2 | 3.2 | 0.00 | 0.00 | 0.00 | 38 | 1011.1 |
| 20260503191124 | 23 | 139 | 1.6 | 1.6 | 0.00 | 0.00 | 0.00 | 40 | 1010.9 |
| 20260503190621 | 23 | 208 | 3.2 | 3.2 | 0.00 | 0.00 | 0.00 | 39 | 1011.1 |
| 20260503190118 | 23 | 150 | 4.8 | 4.8 | 0.00 | 0.00 | 0.00 | 41 | 1011.1 |
| 20260503185614 | 23 | 154 | 3.2 | 3.2 | 0.00 | 0.00 | 0.00 | 42 | 1011.4 |
| 20260503185114 | 23 | 226 | 3.2 | 3.2 | 0.00 | 0.00 | 0.00 | 41 | 1011.4 |
| 20260503184610 | 23 | 132 | 0.0 | 1.6 | 0.00 | 0.00 | 0.00 | 42 | 1011.4 |
| 20260503184107 | 22 | 160 | 3.2 | 6.4 | 0.00 | 0.00 | 0.00 | 43 | 1011.4 |
| 20260503183603 | 22 | 157 | 1.6 | 3.2 | 0.00 | 0.00 | 0.00 | 42 | 1011.4 |
| 20260503183101 | 22 | 95 | 4.8 | 4.8 | 0.00 | 0.00 | 0.00 | 40 | 1011.6 |
| 20260503182559 | 22 | 146 | 3.2 | 3.2 | 0.00 | 0.00 | 0.00 | 42 | 1011.7 |
| 20260503182057 | 21 | 153 | 1.6 | 3.2 | 0.00 | 0.00 | 0.00 | 44 | 1011.8 |
| 20260503181554 | 21 | 147 | 1.6 | 1.6 | 0.00 | 0.00 | 0.00 | 46 | 1011.9 |
| 20260503181050 | 21 | 161 | 3.2 | 4.8 | 0.00 | 0.00 | 0.00 | 46 | 1011.8 |
| 20260503180547 | 21 | 139 | 3.2 | 3.2 | 0.00 | 0.00 | 0.00 | 45 | 1011.9 |
| 20260503180045 | 21 | 148 | 3.2 | 4.8 | 0.00 | 0.00 | 0.00 | 48 | 1012.0 |
| 20260503175541 | 20 | 156 | 1.6 | 1.6 | 0.00 | 0.00 | 0.00 | 47 | 1012.1 |
| 20260503175038 | 20 | 145 | 3.2 | 3.2 | 0.00 | 0.00 | 0.00 | 47 | 1012.0 |
| 20260503174535 | 20 | 176 | 4.8 | 4.8 | 0.00 | 0.00 | 0.00 | 47 | 1012.2 |
| 20260503174031 | 20 | 130 | 3.2 | 3.2 | 0.00 | 0.00 | 0.00 | 47 | 1012.4 |
| 20260503173521 | 20 | 172 | 3.2 | 4.8 | 0.00 | 0.00 | 0.00 | 47 | 1012.2 |
| 20260503173018 | 20 | 153 | 1.6 | 3.2 | 0.00 | 0.00 | 0.00 | 48 | 1012.3 |
| 20260503172516 | 20 | 139 | 1.6 | 1.6 | 0.00 | 0.00 | 0.00 | 46 | 1012.3 |
| 20260503172013 | 18 | 141 | 3.2 | 4.8 | 0.00 | 0.00 | 0.00 | 48 | 1012.5 |
| 20260503171509 | 18 | 168 | 1.6 | 1.6 | 0.00 | 0.00 | 0.00 | 51 | 1012.4 |
| 20260503171006 | 18 | 173 | 3.2 | 3.2 | 0.00 | 0.00 | 0.00 | 49 | 1012.3 |
| 20260503170457 | 18 | 122 | 3.2 | 3.2 | 0.00 | 0.00 | 0.00 | 49 | 1012.6 |
| 20260503150849 | 12 | 145 | 1.6 | 1.6 | 0.00 | 0.00 | 0.00 | 67 | 1013.1 |
| 20260503150345 | 12 | 122 | 0.0 | 1.6 | 0.00 | 0.00 | 0.00 | 68 | 1013.1 |
| 20260503140309 | 8 | 248 | 0.0 | 0.0 | 0.00 | 0.00 | 0.00 | 81 | 1013.4 |
| 20260503131239 | 5 | 249 | 0.0 | 0.0 | 0.00 | 0.00 | 0.00 | 91 | 1013.4 |
| 20260503130737 | 4 | 249 | 0.0 | 0.0 | 0.00 | 0.00 | 0.00 | 91 | 1013.5 |
| 20260503130234 | 4 | 249 | 0.0 | 0.0 | 0.00 | 0.00 | 0.00 | 91 | 1013.4 |
| 20260503120200 | 5 | 248 | 0.0 | 0.0 | 0.00 | 0.00 | 0.00 | 91 | 1013.4 |
| 20260503110627 | 5 | 248 | 0.0 | 0.0 | 0.00 | 0.00 | 0.00 | 87 | 1013.2 |
| 20260503110124 | 5 | 249 | 0.0 | 0.0 | 0.00 | 0.00 | 0.00 | 87 | 1013.4 |
| 20260503090508 | 6 | 249 | 0.0 | 0.0 | 0.00 | 0.00 | 0.00 | 84 | 1013.4 |
| 20260503081428 | 7 | 249 | 0.0 | 0.0 | 0.00 | 0.00 | 0.00 | 81 | 1013.2 |
| 20260503080926 | 7 | 249 | 0.0 | 0.0 | 0.00 | 0.00 | 0.00 | 82 | 1013.3 |
| 20260503080422 | 7 | 249 | 0.0 | 0.0 | 0.00 | 0.00 | 0.00 | 82 | 1013.1 |
| 20260503072858 | 8 | 249 | 0.0 | 0.0 | 0.00 | 0.00 | 0.00 | 78 | 1013.0 |
| 20260503072355 | 8 | 249 | 0.0 | 0.0 | 0.00 | 0.00 | 0.00 | 79 | 1013.0 |
| 20260503071852 | 8 | 249 | 0.0 | 0.0 | 0.00 | 0.00 | 0.00 | 80 | 1013.0 |
| 20260503071349 | 8 | 249 | 0.0 | 0.0 | 0.00 | 0.00 | 0.00 | 78 | 1012.9 |
| 20260503070845 | 9 | 249 | 0.0 | 0.0 | 0.00 | 0.00 | 0.00 | 76 | 1013.1 |
| 20260503070343 | 10 | 249 | 0.0 | 0.0 | 0.00 | 0.00 | 0.00 | 75 | 1012.9 |
| 20260503060256 | 10 | 138 | 0.0 | 0.0 | 0.00 | 0.00 | 0.00 | 76 | 1013.1 |
| 20260503054744 | 11 | 130 | 0.0 | 0.0 | 0.00 | 0.00 | 0.00 | 75 | 1012.6 |
| 20260503054240 | 11 | 120 | 0.0 | 0.0 | 0.00 | 0.00 | 0.00 | 74 | 1012.9 |
| 20260503053738 | 11 | 113 | 0.0 | 0.0 | 0.00 | 0.00 | 0.00 | 69 | 1012.6 |
| 20260503053237 | 11 | 113 | 0.0 | 0.0 | 0.00 | 0.00 | 0.00 | 70 | 1012.5 |
| 20260503052733 | 12 | 111 | 0.0 | 0.0 | 0.00 | 0.00 | 0.00 | 71 | 1012.7 |
| 20260503052230 | 12 | 112 | 0.0 | 0.0 | 0.00 | 0.00 | 0.00 | 70 | 1012.6 |
| 20260503051724 | 12 | 104 | 0.0 | 0.0 | 0.00 | 0.00 | 0.00 | 66 | 1012.6 |
| 20260503051223 | 12 | 110 | 0.0 | 0.0 | 0.00 | 0.00 | 0.00 | 68 | 1012.4 |
| 20260503050719 | 12 | 116 | 0.0 | 0.0 | 0.00 | 0.00 | 0.00 | 68 | 1012.5 |
| 20260503050215 | 13 | 117 | 0.0 | 0.0 | 0.00 | 0.00 | 0.00 | 68 | 1012.3 |
| 20260503045713 | 13 | 108 | 0.0 | 0.0 | 0.00 | 0.00 | 0.00 | 63 | 1012.6 |
| 20260503045210 | 13 | 112 | 0.0 | 0.0 | 0.00 | 0.00 | 0.00 | 62 | 1012.4 |
| 20260503044707 | 13 | 358 | 1.6 | 1.6 | 0.00 | 0.00 | 0.00 | 61 | 1012.4 |
| 20260503044204 | 14 | 224 | 3.2 | 3.2 | 0.00 | 0.00 | 0.00 | 62 | 1012.5 |
| 20260503043701 | 15 | 171 | 0.0 | 0.0 | 0.00 | 0.00 | 0.00 | 60 | 1012.4 |
| 20260503043159 | 15 | 125 | 0.0 | 0.0 | 0.00 | 0.00 | 0.00 | 58 | 1012.2 |
| 20260503042654 | 15 | 125 | 0.0 | 1.6 | 0.00 | 0.00 | 0.00 | 57 | 1012.1 |
| 20260503042150 | 15 | 36 | 0.0 | 1.6 | 0.00 | 0.00 | 0.00 | 55 | 1012.2 |
| 20260503041647 | 16 | 123 | 1.6 | 1.6 | 0.00 | 0.00 | 0.00 | 55 | 1011.9 |
| 20260503041145 | 16 | 93 | 1.6 | 1.6 | 0.00 | 0.00 | 0.00 | 55 | 1012.0 |
| 20260503040642 | 16 | 91 | 3.2 | 3.2 | 0.00 | 0.00 | 0.00 | 54 | 1012.2 |
| 20260503040140 | 16 | 115 | 0.0 | 0.0 | 0.00 | 0.00 | 0.00 | 52 | 1011.9 |
| 20260503035636 | 16 | 93 | 1.6 | 1.6 | 0.00 | 0.00 | 0.00 | 51 | 1011.7 |
| 20260503035134 | 16 | 128 | 0.0 | 0.0 | 0.00 | 0.00 | 0.00 | 53 | 1011.7 |
| 20260503034631 | 16 | 157 | 0.0 | 0.0 | 0.00 | 0.00 | 0.00 | 53 | 1011.8 |
| 20260503034128 | 16 | 148 | 0.0 | 0.0 | 0.00 | 0.00 | 0.00 | 51 | 1011.7 |